EW2799 Weather Reports


Display with metric or nautical units.
time (UTC)temp
F
wind
direction
speed
MPH
gust
MPH
rain 1hr
in
rain 24hr
in
rain mn
in
humidity
%
barometer
mb
20260906105531 71 0 0.0 0.0 0.00 0.85 0.00 98 1014.0
20260906105030 71 0 0.0 0.0 0.00 0.85 0.00 98 1013.7
20260906104551 71 0 0.0 0.0 0.00 0.85 0.00 98 1013.8
20260906104030 71 0 0.0 0.0 0.00 0.85 0.00 98 1013.7
20260906103529 71 0 0.0 0.0 0.00 0.85 0.00 98 1013.7
20260906103049 71 0 0.0 0.0 0.00 0.85 0.00 98 1013.5
20260906102529 71 0 0.0 0.0 0.00 0.85 0.00 98 1013.6
20260906102028 71 0 0.0 0.0 0.00 0.85 0.00 98 1013.6
20260906101558 71 0 0.0 0.0 0.00 0.85 0.00 98 1013.7
20260906101027 71 0 0.0 0.0 0.00 0.85 0.00 98 1013.8
20260906100530 71 0 0.0 0.0 0.00 0.85 0.00 98 1013.8
20260906100055 71 0 0.0 0.0 0.00 0.85 0.00 98 1013.8
20260906095533 71 0 0.0 0.0 0.00 0.85 0.00 98 1013.7
20260906095031 71 0 0.0 0.0 0.00 0.85 0.00 98 1013.5
20260906094549 71 0 0.0 0.0 0.00 0.85 0.00 98 1013.5
20260906094030 71 0 0.0 0.0 0.00 0.85 0.00 98 1013.5
20260906093527 71 0 0.0 0.0 0.00 0.85 0.00 98 1013.4
20260906093057 71 0 0.0 2.0 0.00 0.85 0.00 98 1013.4
20260906092533 71 0 0.0 2.0 0.00 0.85 0.00 98 1013.4
20260906092029 71 54 0.0 2.0 0.00 0.85 0.00 98 1013.5
20260906091550 71 0 0.0 1.0 0.00 0.85 0.00 98 1013.5
20260906091027 71 0 0.0 1.0 0.00 0.85 0.00 98 1013.6
20260906090527 71 0 0.0 2.0 0.00 0.85 0.00 98 1013.5
20260906090058 71 0 0.0 2.0 0.00 0.85 0.00 98 1013.4
20260906085531 71 44 0.0 1.0 0.00 0.85 0.00 98 1013.4
20260906085027 71 0 0.0 1.0 0.00 0.85 0.00 98 1013.5
20260906084555 71 0 0.0 1.0 0.00 0.85 0.00 98 1013.4
20260906084029 71 0 0.0 0.0 0.00 0.85 0.00 98 1013.3
20260906083530 71 0 0.0 1.0 0.00 0.85 0.00 98 1013.3
20260906083048 71 0 0.0 1.0 0.00 0.85 0.00 98 1013.3
20260906082527 71 0 0.0 2.0 0.00 0.85 0.00 98 1013.2
20260906082028 71 0 0.0 4.0 0.00 0.85 0.00 98 1013.2
20260906081549 71 0 0.0 4.0 0.00 0.85 0.00 98 1013.2
20260906081027 71 69 0.0 4.0 0.00 0.85 0.00 98 1013.2
20260906080527 71 0 0.0 0.0 0.00 0.85 0.00 98 1013.1
20260906080053 71 0 0.0 0.0 0.00 0.85 0.00 98 1013.0
20260906075527 71 0 0.0 2.0 0.00 0.85 0.00 98 1013.1
20260906075032 71 0 0.0 2.0 0.00 0.85 0.00 98 1013.1
20260906074558 71 0 0.0 2.0 0.00 0.85 0.00 98 1013.1
20260906074029 71 0 0.0 3.0 0.00 0.85 0.00 98 1013.0
20260906073530 71 39 0.0 3.0 0.00 0.85 0.00 98 1013.0
20260906073050 71 39 0.0 3.0 0.00 0.85 0.00 98 1012.9
20260906072531 71 66 0.0 2.0 0.00 0.85 0.00 98 1013.1
20260906072031 71 0 0.0 0.0 0.00 0.85 0.00 98 1013.0
20260906071549 71 0 0.0 0.0 0.00 0.85 0.00 98 1013.0
20260906071029 71 0 0.0 0.0 0.00 0.85 0.00 98 1013.1
20260906070527 71 0 0.0 0.0 0.00 0.85 0.00 98 1013.3
20260906070047 71 0 0.0 0.0 0.00 0.85 0.00 98 1013.4
20260906065529 71 0 0.0 0.0 0.00 0.85 0.00 98 1013.4
20260906065028 71 0 0.0 0.0 0.00 0.85 0.00 98 1013.5
20260906064552 71 0 0.0 0.0 0.00 0.85 0.00 98 1013.6
20260906064028 71 0 0.0 0.0 0.00 0.85 0.00 98 1013.5
20260906063533 71 0 0.0 0.0 0.00 0.85 0.00 98 1013.7
20260906063052 71 0 0.0 0.0 0.00 0.85 0.00 98 1013.8
20260906062531 71 0 0.0 0.0 0.00 0.85 0.00 98 1013.9
20260906062029 71 0 0.0 0.0 0.00 0.85 0.00 98 1013.9
20260906061549 71 0 0.0 1.0 0.00 0.85 0.00 97 1014.0
20260906061027 71 0 0.0 1.0 0.00 0.85 0.00 97 1014.0
20260906060529 71 0 0.0 2.0 0.00 0.85 0.00 97 1014.1
20260906060056 71 0 0.0 2.0 0.00 0.85 0.00 97 1014.1
20260906055528 71 0 0.0 0.0 0.00 0.85 0.00 97 1013.9
20260906055030 71 0 0.0 0.0 0.00 0.85 0.00 97 1014.0
20260906054552 71 0 0.0 0.0 0.00 0.85 0.00 97 1014.1
20260906054030 71 0 0.0 0.0 0.00 0.85 0.00 97 1014.0
20260906053530 71 0 0.0 0.0 0.00 0.85 0.00 97 1014.0
20260906053050 71 0 0.0 0.0 0.00 0.85 0.00 97 1014.1
20260906052533 71 0 0.0 0.0 0.00 0.85 0.00 97 1014.2
20260906052028 71 0 0.0 0.0 0.00 0.85 0.00 97 1014.2
20260906051554 71 0 0.0 0.0 0.00 0.85 0.00 97 1014.2
20260906051028 71 0 0.0 0.0 0.00 0.85 0.00 97 1014.2
20260906050528 71 0 0.0 0.0 0.00 0.85 0.00 97 1014.3
20260906050059 71 0 0.0 0.0 0.00 0.85 0.00 97 1014.3
20260906045527 71 0 0.0 0.0 0.00 0.85 0.00 97 1014.4
20260906045030 71 0 0.0 0.0 0.00 0.85 0.00 97 1014.2
20260906044552 71 0 0.0 0.0 0.00 0.85 0.00 97 1014.2
20260906044034 71 0 0.0 0.0 0.00 0.85 0.00 97 1014.1
20260906043527 71 0 0.0 0.0 0.00 0.85 0.00 97 1014.1
20260906043049 71 0 0.0 0.0 0.00 0.85 0.00 97 1014.0
20260906042527 71 0 0.0 0.0 0.00 0.85 0.00 97 1013.9
20260906042027 71 0 0.0 3.0 0.00 0.85 0.00 97 1013.8
20260906041639 71 0 0.0 3.0 0.00 0.85 0.00 97 1013.9
20260906041029 71 0 0.0 3.0 0.00 0.85 0.00 97 1013.7
20260906040529 72 0 0.0 0.0 0.00 0.85 0.00 97 1013.7
20260906040056 72 0 0.0 0.0 0.00 0.85 0.00 97 1013.9
20260906035530 72 0 0.0 0.0 0.00 0.85 0.85 97 1013.8
20260906035030 72 0 0.0 2.0 0.00 0.85 0.85 97 1013.8
20260906034552 72 0 0.0 2.0 0.00 0.85 0.85 96 1013.9
20260906034034 72 0 0.0 2.0 0.01 0.85 0.85 97 1014.0
20260906033527 72 0 0.0 0.0 0.01 0.85 0.85 97 1014.1
20260906033050 72 0 0.0 0.0 0.01 0.85 0.85 96 1014.1
20260906032527 71 0 0.0 0.0 0.01 0.85 0.85 96 1014.1
20260906032028 71 0 0.0 0.0 0.01 0.85 0.85 96 1014.1
20260906031558 71 0 0.0 1.0 0.01 0.85 0.85 96 1014.2
20260906031031 72 0 0.0 2.0 0.01 0.85 0.85 95 1014.2
20260906030530 72 0 0.0 3.0 0.01 0.85 0.85 96 1014.3
20260906030054 72 43 1.0 3.0 0.01 0.85 0.85 96 1014.4
20260906025527 72 0 1.0 3.0 0.01 0.85 0.85 96 1014.3
20260906025029 72 0 0.0 1.0 0.01 0.85 0.85 96 1014.1
20260906024600 72 0 0.0 3.0 0.01 0.85 0.85 96 1014.2
20260906024028 72 0 0.0 3.0 0.00 0.84 0.84 96 1014.4
20260906023530 72 86 1.0 3.0 0.00 0.84 0.84 96 1014.4
20260906023058 72 86 0.0 3.0 0.00 0.84 0.84 96 1014.3
20260906022528 72 0 0.0 1.0 0.00 0.84 0.84 96 1014.2
20260906022032 72 0 0.0 0.0 0.00 0.84 0.84 96 1014.4
20260906021557 72 0 0.0 0.0 0.00 0.84 0.84 96 1014.4
20260906021027 72 0 0.0 1.0 0.00 0.84 0.84 95 1014.4
20260906020529 71 0 0.0 1.0 0.00 0.84 0.84 95 1014.3
20260906020048 71 221 0.0 4.0 0.14 0.84 0.84 95 1014.2
20260906015533 71 0 1.0 5.0 0.45 0.84 0.84 95 1014.2
20260906015029 71 56 1.0 5.0 0.81 0.84 0.84 95 1014.4
20260906014605 71 0 2.0 5.0 0.84 0.84 0.84 94 1014.2
20260906014034 71 0 1.0 4.0 0.84 0.84 0.84 94 1014.1
20260906013526 71 0 0.0 0.0 0.84 0.84 0.84 93 1013.9
20260906013052 71 0 0.0 2.0 0.84 0.84 0.84 93 1014.0
20260906012527 71 0 0.0 3.0 0.84 0.84 0.84 92 1014.1
20260906012033 72 0 1.0 8.0 0.84 0.84 0.84 93 1014.1
20260906011603 72 52 1.0 9.0 0.84 0.84 0.84 91 1014.0
20260906011032 72 169 3.0 9.0 0.84 0.84 0.84 88 1014.1
20260906010531 72 76 1.0 23.0 0.83 0.83 0.83 89 1014.4
20260906010050 74 265 4.0 23.0 0.68 0.68 0.68 86 1014.9
20260906005530 76 88 12.0 22.0 0.35 0.35 0.35 80 1015.5
20260906005034 81 140 6.0 15.0 0.02 0.02 0.02 69 1015.1
20260906004557 84 206 2.0 12.0 0.00 0.00 0.00 66 1014.5
20260906004034 85 245 4.0 12.0 0.00 0.00 0.00 69 1014.4
20260906003532 85 46 3.0 8.0 0.00 0.00 0.00 75 1014.2
20260906003053 84 0 3.0 8.0 0.00 0.00 0.00 77 1014.0
20260906002528 84 85 1.0 2.0 0.00 0.00 0.00 78 1013.9
20260906002031 85 0 0.0 0.0 0.00 0.00 0.00 77 1013.1
20260906001556 85 0 0.0 0.0 0.00 0.00 0.00 77 1013.0
20260906001033 85 0 0.0 0.0 0.00 0.00 0.00 77 1013.2
20260906000533 86 0 0.0 0.0 0.00 0.00 0.00 76 1013.2
20260906000050 86 0 0.0 0.0 0.00 0.00 0.00 76 1013.0
20260905235528 86 0 0.0 0.0 0.00 0.00 0.00 75 1012.7
20260905235031 87 0 0.0 0.0 0.00 0.00 0.00 74 1012.6
20260905234543 87 0 0.0 0.0 0.00 0.00 0.00 73 1012.6
20260905234033 87 0 0.0 0.0 0.00 0.00 0.00 73 1012.4
20260905233530 88 0 0.0 0.0 0.00 0.00 0.00 71 1012.5
20260905233108 88 0 0.0 0.0 0.00 0.00 0.00 71 1012.6
20260905232533 88 0 0.0 0.0 0.00 0.00 0.00 70 1012.5
20260905232032 89 0 0.0 0.0 0.00 0.00 0.00 70 1012.6
20260905231555 89 0 0.0 0.0 0.00 0.00 0.00 68 1012.5
20260905231030 89 0 0.0 2.0 0.00 0.00 0.00 68 1012.7
20260905230533 90 0 0.0 3.0 0.00 0.00 0.00 67 1012.8
20260905230051 90 335 0.0 3.0 0.00 0.00 0.00 66 1012.8
20260905225531 91 338 0.0 3.0 0.00 0.00 0.00 66 1012.8
20260905225030 91 0 0.0 3.0 0.00 0.00 0.00 66 1012.8
20260905224608 91 0 0.0 2.0 0.00 0.00 0.00 66 1012.7
20260905224029 92 0 0.0 3.0 0.00 0.00 0.00 64 1012.7
20260905223532 92 0 0.0 3.0 0.00 0.00 0.00 64 1012.5
20260905223054 93 0 0.0 2.0 0.00 0.00 0.00 62 1012.5
20260905222533 93 350 0.0 2.0 0.00 0.00 0.00 62 1012.5
20260905222035 94 0 0.0 6.0 0.00 0.00 0.00 61 1012.4
20260905221557 95 310 0.0 6.0 0.00 0.00 0.00 59 1012.3
20260905221035 95 111 0.0 3.0 0.00 0.00 0.00 57 1012.3
20260905220532 95 36 0.0 2.0 0.00 0.00 0.00 52 1012.2
20260905220054 96 0 0.0 2.0 0.00 0.00 0.00 49 1012.2
20260905215530 96 273 0.0 2.0 0.00 0.00 0.00 50 1012.2
20260905215030 96 0 0.0 1.0 0.00 0.00 0.00 50 1012.2
20260905214549 96 0 0.0 1.0 0.00 0.00 0.00 50 1012.2
20260905214032 96 0 0.0 1.0 0.00 0.00 0.00 52 1012.3
20260905213530 96 0 0.0 3.0 0.00 0.00 0.00 49 1012.3
20260905213050 96 0 1.0 3.0 0.00 0.00 0.00 48 1012.3
20260905212530 96 0 0.0 2.0 0.00 0.00 0.00 47 1012.3
20260905212033 97 284 0.0 2.0 0.00 0.00 0.00 49 1012.4
20260905211545 97 0 0.0 2.0 0.00 0.00 0.00 49 1012.4
20260905211031 97 0 0.0 2.0 0.00 0.00 0.00 49 1012.5
20260905210534 97 0 0.0 2.0 0.00 0.00 0.00 50 1012.5
20260905210054 97 0 0.0 2.0 0.00 0.00 0.00 49 1012.5
20260905205530 97 0 0.0 4.0 0.00 0.00 0.00 48 1012.5
20260905205032 97 0 0.0 4.0 0.00 0.00 0.00 48 1012.4
20260905204550 97 93 0.0 4.0 0.00 0.00 0.00 49 1012.4
20260905204030 96 0 0.0 4.0 0.00 0.00 0.00 49 1012.5
20260905203529 97 230 1.0 4.0 0.00 0.00 0.00 47 1012.5
20260905203055 97 0 0.0 3.0 0.00 0.00 0.00 48 1012.5
20260905202529 97 0 1.0 3.0 0.00 0.00 0.00 48 1012.6
20260905202029 97 0 0.0 2.0 0.00 0.00 0.00 50 1012.7
20260905201608 96 0 0.0 2.0 0.00 0.00 0.00 51 1012.7
20260905201028 96 0 0.0 2.0 0.00 0.00 0.00 50 1012.8
20260905200530 96 0 0.0 3.0 0.00 0.00 0.00 48 1012.9
20260905200052 96 221 1.0 4.0 0.00 0.00 0.00 48 1013.2
20260905195529 96 0 0.0 4.0 0.00 0.00 0.00 51 1013.2
20260905195028 96 0 0.0 4.0 0.00 0.00 0.00 51 1013.2
20260905194549 96 0 0.0 4.0 0.00 0.00 0.00 52 1013.3
20260905194030 96 0 0.0 4.0 0.00 0.00 0.00 51 1013.4
20260905193531 96 304 0.0 4.0 0.00 0.00 0.00 51 1013.5
20260905193044 96 0 0.0 3.0 0.00 0.00 0.00 52 1013.6
20260905192529 96 0 0.0 3.0 0.00 0.00 0.00 51 1013.6
20260905192030 96 0 1.0 5.0 0.00 0.00 0.00 52 1013.7
20260905191557 95 258 1.0 6.0 0.00 0.00 0.00 53 1013.8
20260905191031 96 225 1.0 6.0 0.00 0.00 0.00 52 1013.7
20260905190534 96 0 1.0 6.0 0.00 0.00 0.00 52 1013.7
20260905190110 96 0 1.0 4.0 0.00 0.00 0.00 52 1013.7
20260905185528 95 298 0.0 5.0 0.00 0.00 0.00 53 1013.8
20260905185032 95 200 1.0 5.0 0.00 0.00 0.00 55 1013.8
20260905184609 95 0 1.0 6.0 0.00 0.00 0.00 54 1013.7
20260905184028 94 0 1.0 6.0 0.00 0.00 0.00 56 1013.9
20260905183529 94 86 1.0 5.0 0.00 0.00 0.00 58 1014.1
20260905183049 93 140 2.0 6.0 0.00 0.00 0.00 56 1014.3
20260905182528 94 139 1.0 9.0 0.00 0.00 0.00 56 1014.4
20260905182028 94 198 4.0 9.0 0.00 0.00 0.00 57 1014.4
20260905181555 94 217 1.0 4.0 0.00 0.00 0.00 56 1014.4
20260905181031 94 181 2.0 4.0 0.00 0.00 0.00 57 1014.4
20260905180531 94 0 2.0 4.0 0.00 0.00 0.00 58 1014.5
20260905180053 94 317 1.0 4.0 0.00 0.00 0.00 60 1014.5
20260905175528 93 256 1.0 6.0 0.00 0.00 0.00 59 1014.5
20260905175030 93 348 2.0 6.0 0.00 0.00 0.00 59 1014.6
20260905174556 94 221 3.0 6.0 0.00 0.00 0.00 58 1014.7
20260905174028 94 311 0.0 3.0 0.00 0.00 0.00 61 1014.7
20260905173529 93 0 0.0 9.0 0.00 0.00 0.00 60 1014.8
20260905173048 93 0 0.0 9.0 0.00 0.00 0.00 60 1014.9
20260905172531 93 243 2.0 9.0 0.00 0.00 0.00 61 1014.9
20260905172031 93 290 0.0 6.0 0.00 0.00 0.00 63 1015.0
20260905171557 93 298 2.0 6.0 0.00 0.00 0.00 66 1015.1
20260905171031 93 302 1.0 4.0 0.00 0.00 0.00 66 1015.1
20260905170531 92 0 0.0 5.0 0.00 0.00 0.00 67 1015.2
20260905170054 92 0 0.0 6.0 0.00 0.00 0.00 65 1015.2
20260905165530 91 319 2.0 6.0 0.00 0.00 0.00 63 1015.4
20260905165028 91 46 1.0 7.0 0.00 0.00 0.00 66 1015.4
20260905164552 91 68 3.0 7.0 0.00 0.00 0.00 67 1015.6
20260905164029 91 95 0.0 2.0 0.00 0.00 0.00 70 1015.6
20260905163530 91 174 0.0 3.0 0.00 0.00 0.00 68 1015.6
20260905163048 91 0 1.0 4.0 0.00 0.00 0.00 67 1015.7
20260905162527 91 291 1.0 5.0 0.00 0.00 0.00 68 1015.8
20260905162027 90 0 2.0 5.0 0.00 0.00 0.00 68 1015.9
20260905161557 90 269 1.0 4.0 0.00 0.00 0.00 67 1015.9
20260905161031 90 195 1.0 4.0 0.00 0.00 0.00 69 1016.0
20260905160531 90 0 2.0 4.0 0.00 0.00 0.00 70 1016.0
20260905160052 89 0 0.0 3.0 0.00 0.00 0.00 71 1016.1
20260905155529 89 0 1.0 4.0 0.00 0.00 0.00 72 1016.1
20260905155029 89 237 1.0 4.0 0.00 0.00 0.00 72 1016.1
20260905154553 89 252 2.0 4.0 0.00 0.00 0.00 72 1016.1
20260905154030 89 248 1.0 4.0 0.00 0.00 0.00 74 1016.0
20260905153529 88 254 0.0 4.0 0.00 0.00 0.00 74 1016.1
20260905153048 88 235 1.0 4.0 0.00 0.00 0.00 75 1016.1
20260905152532 87 207 0.0 3.0 0.00 0.00 0.00 77 1016.1
20260905152031 87 0 0.0 3.0 0.00 0.00 0.00 76 1016.1
20260905151555 87 0 1.0 3.0 0.00 0.00 0.00 76 1016.2
20260905151037 86 0 1.0 3.0 0.00 0.00 0.00 77 1016.3
20260905150532 86 177 0.0 3.0 0.00 0.00 0.00 79 1016.3
20260905150050 86 262 1.0 4.0 0.00 0.00 0.00 79 1016.3
20260905145531 86 289 2.0 4.0 0.00 0.00 0.00 79 1016.3
20260905145028 86 233 1.0 3.0 0.00 0.00 0.00 80 1016.3
20260905144549 85 141 0.0 3.0 0.00 0.00 0.00 82 1016.4
20260905144031 84 91 0.0 3.0 0.00 0.00 0.00 82 1016.4
20260905143531 84 0 0.0 4.0 0.00 0.00 0.00 83 1016.5
20260905143049 84 212 1.0 4.0 0.00 0.00 0.00 82 1016.4
20260905142529 84 204 1.0 3.0 0.00 0.00 0.00 83 1016.5
20260905142031 83 262 0.0 3.0 0.00 0.00 0.00 83 1016.5
20260905141611 83 0 0.0 3.0 0.00 0.00 0.00 86 1016.5
20260905141031 82 202 1.0 3.0 0.00 0.00 0.00 85 1016.6
20260905140532 82 262 1.0 6.0 0.00 0.00 0.00 86 1016.6
20260905140053 82 253 0.0 6.0 0.00 0.00 0.00 86 1016.7
20260905135531 81 291 1.0 6.0 0.00 0.00 0.00 87 1016.5
20260905135031 81 300 1.0 3.0 0.00 0.00 0.00 88 1016.4
20260905134551 80 0 0.0 3.0 0.00 0.00 0.00 90 1016.6
20260905134028 80 219 0.0 3.0 0.00 0.00 0.00 90 1016.6
20260905133531 79 0 0.0 3.0 0.00 0.00 0.00 92 1016.6
20260905133047 79 105 0.0 3.0 0.00 0.00 0.00 92 1016.7
20260905132531 78 0 0.0 0.0 0.00 0.00 0.00 93 1016.7
20260905132031 77 0 0.0 0.0 0.00 0.00 0.00 94 1016.5
20260905131610 77 0 0.0 0.0 0.00 0.00 0.00 95 1016.6
20260905131031 77 0 0.0 0.0 0.00 0.00 0.00 96 1016.7
20260905130530 76 0 0.0 0.0 0.00 0.00 0.00 97 1016.8
20260905130050 76 0 0.0 0.0 0.00 0.00 0.00 97 1016.7
20260905125530 76 0 0.0 0.0 0.00 0.00 0.00 97 1016.6
20260905125030 76 0 0.0 0.0 0.00 0.00 0.00 98 1016.7
20260905124552 76 0 0.0 0.0 0.00 0.00 0.00 98 1016.7
20260905124033 75 0 0.0 0.0 0.00 0.00 0.00 98 1016.6
20260905123528 75 0 0.0 1.0 0.00 0.00 0.00 98 1016.6
20260905123108 75 0 0.0 1.0 0.00 0.00 0.00 98 1016.5
20260905122531 75 0 0.0 1.0 0.00 0.00 0.00 98 1016.6
20260905122029 74 0 0.0 0.0 0.00 0.00 0.00 98 1016.6
20260905121552 74 0 0.0 0.0 0.00 0.00 0.00 98 1016.5
20260905121031 74 0 0.0 0.0 0.00 0.00 0.00 98 1016.5
20260905120532 74 0 0.0 0.0 0.00 0.00 0.00 98 1016.4
20260905120052 74 0 0.0 0.0 0.00 0.00 0.00 98 1016.4
20260905115527 74 0 0.0 0.0 0.00 0.00 0.00 98 1016.3
20260905115028 74 0 0.0 0.0 0.00 0.00 0.00 98 1016.3
20260905114557 74 0 0.0 0.0 0.00 0.00 0.00 98 1016.2
20260905114029 74 0 0.0 0.0 0.00 0.00 0.00 98 1016.2
20260905113532 74 0 0.0 0.0 0.00 0.00 0.00 97 1016.2
20260905113101 74 0 0.0 0.0 0.00 0.00 0.00 97 1016.2
20260905112530 74 0 0.0 0.0 0.00 0.00 0.00 97 1016.2
20260905112029 74 0 0.0 0.0 0.00 0.00 0.00 97 1016.1
20260905111558 74 0 0.0 0.0 0.00 0.00 0.00 97 1016.1
20260905111032 74 0 0.0 0.0 0.00 0.00 0.00 97 1015.9
20260905110532 74 0 0.0 0.0 0.00 0.00 0.00 97 1015.8
20260905110049 74 0 0.0 0.0 0.00 0.00 0.00 97 1015.7